When you browse on this site, cookies collect data to enhance your experience and personalize the content and advertising you see.
Visit our Privacy Policy to learn more. By continuing to use the site, you agree to this use of cookies and data.
  • In Portugal
  • List of Countries
  • For 7 days
  • Water Temperature
  • Satellite Maps
  • Weather Map
  • Weather Widgets
  • user-avatar
    Login

    Hourly Weather Tomislaw

    Today, 18 December, Tuesday

    Time Temperature Precipitation Wind Pressure Humidity
    00:00 +1°C° 0 mm 2 mps 752 mmHg 89%
    01:00 +1°C° 0 mm 2 mps 752 mmHg 91%
    02:00 +1°C° 0 mm 2 mps 752 mmHg 91%
    03:00 +1°C° 0 mm 2 mps 752 mmHg 91%
    04:00 +1°C° 0 mm 2 mps 753 mmHg 91%
    05:00 +1°C° 0 mm 2 mps 753 mmHg 92%
    06:00 +1°C° 0 mm 2 mps 753 mmHg 92%
    07:00 +1°C° 0 mm 2 mps 753 mmHg 93%
    08:00 +2°C° 0 mm 2 mps 753 mmHg 92%
    09:00 +2°C° 0 mm 2 mps 753 mmHg 92%
    10:00 +2°C° 0 mm 2 mps 753 mmHg 91%
    11:00 +3°C° 0 mm 2 mps 753 mmHg 91%
    12:00 +3°C° 0 mm 2 mps 753 mmHg 90%
    13:00 +3°C° 0 mm 2 mps 753 mmHg 90%
    14:00 +4°C° 0 mm 1 mps 753 mmHg 91%
    15:00 +3°C° 0 mm 1 mps 753 mmHg 91%
    16:00 +2°C° 0 mm 1 mps 753 mmHg 92%
    17:00 +2°C° 0 mm 1 mps 753 mmHg 92%
    18:00 +1°C° 0 mm 2 mps 753 mmHg 92%
    19:00 -1°C° 0 mm 2 mps 753 mmHg 92%
    20:00 -1°C° 0 mm 2 mps 753 mmHg 92%
    21:00 -1°C° 0 mm 2 mps 752 mmHg 91%
    22:00 -1°C° 0 mm 2 mps 752 mmHg 91%
    23:00 -1°C° 0 mm 2 mps 752 mmHg 91%

    Tomorrow, 19 December, Wednesday

    Time Temperature Precipitation Wind Pressure Humidity
    00:00 -1°C° 0 mm 2 mps 752 mmHg 90%
    01:00 -1°C° 0 mm 3 mps 752 mmHg 90%
    02:00 -1°C° 0 mm 3 mps 751 mmHg 89%
    03:00 -2°C° 0 mm 3 mps 751 mmHg 89%
    04:00 -2°C° 0 mm 3 mps 751 mmHg 88%
    05:00 -2°C° 0 mm 3 mps 750 mmHg 87%
    06:00 -2°C° 0 mm 3 mps 750 mmHg 87%
    07:00 -3°C° 0 mm 4 mps 750 mmHg 86%
    08:00 -2°C° 0 mm 4 mps 750 mmHg 83%
    09:00 -1°C° 0 mm 4 mps 750 mmHg 80%
    10:00 -1°C° 0 mm 4 mps 749 mmHg 77%
    11:00 0°C° 0 mm 4 mps 749 mmHg 75%
    12:00 0°C° 0 mm 4 mps 749 mmHg 73%
    13:00 0°C° 0 mm 4 mps 749 mmHg 71%
    14:00 0°C° 0 mm 4 mps 748 mmHg 74%
    15:00 -1°C° 0 mm 4 mps 748 mmHg 76%
    16:00 0°C° 0 mm 3 mps 748 mmHg 79%
    17:00 0°C° 0 mm 3 mps 748 mmHg 79%
    18:00 0°C° 0 mm 3 mps 747 mmHg 79%
    19:00 0°C° 0 mm 3 mps 747 mmHg 79%
    20:00 0°C° 0.1 mm 3 mps 747 mmHg 79%
    21:00 0°C° 0.1 mm 3 mps 747 mmHg 79%
    22:00 -1°C° 0.1 mm 3 mps 747 mmHg 79%
    23:00 -1°C° 0 mm 3 mps 747 mmHg 79%

    Day after tomorrow, 20 December, Thursday

    Time Temperature Precipitation Wind Pressure Humidity
    00:00 -1°C° 0 mm 3 mps 747 mmHg 80%
    01:00 -1°C° 0 mm 3 mps 747 mmHg 80%
    02:00 -1°C° 0 mm 3 mps 747 mmHg 80%
    03:00 -1°C° 0 mm 3 mps 747 mmHg 80%
    04:00 -2°C° 0 mm 2 mps 746 mmHg 80%
    05:00 -2°C° 0.1 mm 3 mps 746 mmHg 81%
    06:00 -2°C° 0.1 mm 3 mps 746 mmHg 81%
    07:00 -2°C° 0.1 mm 3 mps 746 mmHg 82%
    08:00 -1°C° 0.2 mm 3 mps 747 mmHg 82%
    09:00 -1°C° 0.2 mm 3 mps 747 mmHg 82%
    10:00 -1°C° 0.2 mm 3 mps 747 mmHg 82%
    11:00 -1°C° 0.5 mm 3 mps 746 mmHg 84%
    12:00 0°C° 0.5 mm 3 mps 746 mmHg 85%
    13:00 0°C° 0.5 mm 3 mps 746 mmHg 87%
    14:00 0°C° 0.3 mm 3 mps 746 mmHg 87%
    15:00 0°C° 0.3 mm 3 mps 746 mmHg 88%
    16:00 0°C° 0.3 mm 3 mps 746 mmHg 88%
    17:00 0°C° 0 mm 3 mps 746 mmHg 88%
    18:00 +1°C° 0 mm 3 mps 746 mmHg 89%
    19:00 0°C° 0 mm 4 mps 747 mmHg 89%
    20:00 0°C° 0 mm 4 mps 747 mmHg 89%
    21:00 +1°C° 0 mm 3 mps 747 mmHg 89%
    22:00 +1°C° 0 mm 3 mps 747 mmHg 89%
    23:00 +1°C° 0 mm 3 mps 747 mmHg 90%

    21 December, Friday

    Time Temperature Precipitation Wind Pressure Humidity
    00:00 +1°C° 0 mm 3 mps 747 mmHg 90%
    01:00 +1°C° 0 mm 3 mps 747 mmHg 91%
    02:00 +1°C° 0 mm 3 mps 747 mmHg 90%
    03:00 +1°C° 0 mm 3 mps 747 mmHg 90%
    04:00 +1°C° 0 mm 3 mps 747 mmHg 89%
    05:00 +1°C° 0.1 mm 4 mps 747 mmHg 88%
    06:00 +1°C° 0.1 mm 4 mps 747 mmHg 88%
    07:00 +1°C° 0.1 mm 4 mps 747 mmHg 87%
    08:00 +1°C° 0 mm 4 mps 746 mmHg 86%
    09:00 +1°C° 0 mm 4 mps 746 mmHg 85%
    10:00 +1°C° 0 mm 4 mps 746 mmHg 85%
    11:00 +3°C° 0 mm 4 mps 745 mmHg 84%
    12:00 +3°C° 0 mm 4 mps 744 mmHg 83%
    13:00 +2°C° 0 mm 5 mps 744 mmHg 82%
    14:00 +2°C° 0.3 mm 5 mps 743 mmHg 82%
    15:00 +2°C° 0.3 mm 5 mps 742 mmHg 82%
    16:00 +2°C° 0.3 mm 6 mps 741 mmHg 82%
    17:00 +2°C° 1.1 mm 6 mps 740 mmHg 83%
    18:00 +3°C° 1.1 mm 6 mps 739 mmHg 84%
    19:00 +3°C° 1.1 mm 6 mps 738 mmHg 85%
    20:00 +4°C° 0.9 mm 7 mps 738 mmHg 85%
    21:00 +5°C° 0.9 mm 7 mps 738 mmHg 85%
    22:00 +6°C° 0.9 mm 7 mps 738 mmHg 84%
    23:00 +7°C° 0.2 mm 6 mps 738 mmHg 84%

    22 December, Saturday

    Time Temperature Precipitation Wind Pressure Humidity
    00:00 +5°C° 0.2 mm 6 mps 738 mmHg 84%
    01:00 +6°C° 0.2 mm 5 mps 739 mmHg 84%
    02:00 +6°C° 0 mm 5 mps 739 mmHg 83%
    03:00 +4°C° 0 mm 6 mps 740 mmHg 82%
    04:00 +4°C° 0 mm 6 mps 741 mmHg 81%
    05:00 +4°C° 0 mm 6 mps 741 mmHg 81%
    06:00 +4°C° 0 mm 6 mps 741 mmHg 81%
    07:00 +3°C° 0 mm 6 mps 742 mmHg 81%
    08:00 +4°C° 0.1 mm 6 mps 742 mmHg 80%
    09:00 +4°C° 0.1 mm 6 mps 742 mmHg 80%
    10:00 +5°C° 0.1 mm 6 mps 742 mmHg 80%
    11:00 +5°C° 0.1 mm 6 mps 741 mmHg 79%
    12:00 +6°C° 0.1 mm 5 mps 741 mmHg 78%
    13:00 +7°C° 0.1 mm 5 mps 740 mmHg 77%
    14:00 +7°C° 0.6 mm 5 mps 740 mmHg 80%
    15:00 +7°C° 0.6 mm 5 mps 739 mmHg 83%
    16:00 +7°C° 0.6 mm 5 mps 739 mmHg 86%
    17:00 +7°C° 0.3 mm 5 mps 739 mmHg 84%
    18:00 +6°C° 0.3 mm 5 mps 739 mmHg 83%
    19:00 +5°C° 0.3 mm 6 mps 740 mmHg 81%
    20:00 +5°C° 0.1 mm 6 mps 740 mmHg 80%
    21:00 +5°C° 0.1 mm 7 mps 740 mmHg 79%
    22:00 +5°C° 0.1 mm 7 mps 741 mmHg 78%
    23:00 +5°C° 0.3 mm 7 mps 741 mmHg 79%

    23 December, Sunday

    Time Temperature Precipitation Wind Pressure Humidity
    00:00 +5°C° 0.3 mm 8 mps 742 mmHg 80%
    01:00 +5°C° 0.3 mm 8 mps 742 mmHg 81%
    02:00 +5°C° 0.2 mm 7 mps 743 mmHg 81%
    03:00 +5°C° 0.2 mm 7 mps 743 mmHg 81%
    04:00 +4°C° 0.2 mm 7 mps 744 mmHg 80%
    05:00 +4°C° 0 mm 7 mps 744 mmHg 81%
    06:00 +4°C° 0 mm 6 mps 745 mmHg 82%
    07:00 +4°C° 0 mm 6 mps 745 mmHg 83%
    08:00 +4°C° 0.1 mm 6 mps 746 mmHg 82%
    09:00 +4°C° 0.1 mm 7 mps 746 mmHg 81%
    10:00 +4°C° 0.1 mm 7 mps 747 mmHg 80%
    11:00 +4°C° 0.1 mm 7 mps 747 mmHg 78%
    12:00 +4°C° 0.1 mm 7 mps 747 mmHg 77%
    13:00 +4°C° 0.1 mm 7 mps 747 mmHg 75%
    14:00 +4°C° 0.1 mm 7 mps 748 mmHg 76%
    15:00 +4°C° 0.1 mm 6 mps 748 mmHg 77%
    16:00 +4°C° 0.1 mm 6 mps 749 mmHg 78%
    17:00 +3°C° 0 mm 5 mps 749 mmHg 80%
    18:00 +3°C° 0 mm 5 mps 749 mmHg 81%
    19:00 +3°C° 0 mm 5 mps 750 mmHg 82%
    20:00 +4°C° 0 mm 4 mps 750 mmHg 84%
    21:00 +3°C° 0 mm 4 mps 751 mmHg 85%
    22:00 +3°C° 0 mm 4 mps 751 mmHg 86%
    23:00 +3°C° 0 mm 3 mps 751 mmHg 88%
    Show more